Probability
87 84 87 81 48 61 68 61 55 65 55 45 39 32 35 35 26 29 42 65 68 68 61 52 39 45 39 35 39 29 26 32 29 29 16 10 10 13 6 10 6 10 10
90 84 84 81 45 48 48 55 52 58 55 39 39 42 32 32 39 35 32 58 58 65 61 52 39 35 42 35 32 26 19 26 19 26 32 13 10 13 10 6 3 3 3
94 77 74 77 61 58 68 68 52 52 48 29 32 29 32 48 39 32 32 39 48 61 68 58 48 48 45 35 42 32 35 35 42 35 26 26 23 26 19 16 13 13 3
84 81 74 68 77 61 58 68 52 42 39 35 39 35 32 42 42 35 23 42 42 45 61 61 58 61 61 58 48 45 39 42 39 45 48 35 32 26 19 19 16 10 10
71 71 68 74 81 71 61 52 48 45 42 45 26 39 29 29 32 29 26 19 35 48 45 61 61 65 55 55 55 45 45 48 42 35 39 35 32 39 32 10 16 6 10
74 71 65 61 61 71 74 74 61 68 52 65 6 13 26 16 26 23 23 19 42 26 23 35 48 45 58 58 55 58 52 52 48 48 42 35 35 42 39 23 10 13 6
71 68 48 61 65 65 68 55 71 58 55 52 26 23 32 13 13 35 23 29 26 29 39 35 45 42 55 42 48 58 55 42 52 52 48 48 42 52 42 29 16 10 10
68 58 65 65 71 74 77 74 84 61 45 48 32 39 39 35 35 3 32 32 19 29 32 35 52 48 45 45 32 42 52 52 42 48 52 52 48 52 45 29 23 13 13
71 65 61 58 71 65 65 77 81 71 55 52 32 35 35 26 23 16 19 32 48 39 39 48 45 55 45 42 42 29 45 55 52 45 52 48 52 48 35 23 16 13 13
68 61 52 61 68 61 71 61 55 74 71 48 45 39 19 19 19 26 10 6 16 32 35 23 16 42 42 42 48 23 45 45 45 52 48 52 42 35 26 29 16 16 13
61 58 52 55 65 65 65 65 68 74 71 61 45 42 32 26 13 19 13 10 6 10 19 29 32 35 42 45 52 23 16 16 23 29 48 42 35 35 26 19 19 19 16
55 58 52 55 58 65 81 74 74 65 68 61 61 55 35 23 16 16 10 13 13 0 16 19 23 26 29 32 19 6 19 3 0 3 3 23 35 26 26 19 16 16 16
52 55 55 55 61 71 71 65 74 65 61 58 61 55 45 19 26 16 19 16 10 3 6 3 10 23 10 23 39 6 13 3 0 0 0 3 3 10 16 16 19 19 19
48 48 55 55 58 61 55 65 61 65 55 58 45 55 55 35 29 23 19 23 16 10 10 3 13 16 19 19 3 0 3 0 0 0 0 0 0 0 0 0 6 13 13
52 45 45 48 48 48 52 52 55 58 58 52 55 55 48 45 35 26 29 29 16 16 10 19 13 13 23 26 0 0 13 0 0 0 0 0 0 0 0 0 0 0 0
52 48 48 48 45 48 52 55 48 45 48 55 52 45 45 35 35 35 23 26 26 29 19 16 23 10 10 0 0 3 10 0 0 0 0 0 0 0 0 0 0 0 0
52 45 39 35 42 45 42 45 39 35 29 29 35 26 35 39 32 19 23 23 32 32 29 13 6 10 16 19 10 10 10 10 0 0 0 0 0 0 0 0 0 0 0
48 42 42 35 32 35 32 35 32 23 26 23 26 26 26 26 32 19 29 13 19 26 26 16 13 10 19 13 16 16 6 3 3 0 0 0 0 0 0 0 0 0 0
45 45 39 39 29 29 35 35 29 32 29 23 29 32 19 23 26 16 19 13 16 6 13 10 16 19 10 3 10 6 3 10 3 0 0 0 0 0 0 0 0 0 0
39 29 26 29 32 23 26 26 26 29 29 23 23 23 19 16 19 29 19 23 3 6 13 6 13 16 10 3 10 6 6 6 6 0 0 0 0 0 0 0 0 0 0
23 29 32 23 23 16 13 16 13 10 19 10 10 13 13 3 6 10 3 19 16 6 3 3 3 13 6 13 10 10 13 6 6 6 3 3 0 0 0 0 0 0 0
26 29 29 19 16 10 6 0 6 6 13 6 6 10 10 3 3 0 0 0 0 6 3 3 6 10 13 10 13 0 10 0 0 3 0 0 0 0 0 0 0 0 0
23 19 16 16 13 10 0 0 0 3 6 6 6 6 6 0 0 3 0 0 0 0 0 6 3 6 10 6 6 3 3 0 0 0 0 0 0 0 0 0 0 0 0
13 13 13 13 13 3 0 0 0 0 0 3 3 6 6 6 0 0 3 0 0 0 0 0 3 6 6 6 6 3 3 0 0 0 0 0 0 0 0 0 0 0 0
23 19 16 10 13 13 0 0 0 0 3 3 3 6 10 10 0 0 0 3 6 3 0 0 0 0 0 0 0 3 0 0 0 0 0 0 0 0 0 0 0 0 0
19 23 6 10 13 19 3 0 0 0 3 3 6 6 0 0 0 0 3 3 3 3 3 0 0 0 0 0 0 0 0 0 0 0 0 0 0 0 0 0 0 0 0
Height
5906 5907 5907 5908 5908 5909 5909 5910 5910 5911 5912 5912 5913 5913 5914 5914 5914 5914 5914 5914 5914 5914 5914 5914 5913 5913 5912 5912 5912 5912 5912 5912 5912 5912 5911 5911 5911 5910 5910 5910 5909 5909 5909
5905 5906 5907 5908 5908 5909 5909 5910 5911 5911 5912 5912 5913 5913 5914 5914 5914 5914 5914 5914 5914 5914 5914 5913 5913 5912 5912 5911 5911 5911 5911 5911 5911 5911 5911 5910 5910 5910 5909 5909 5909 5908 5908
5904 5905 5906 5907 5908 5908 5909 5910 5910 5911 5912 5912 5913 5913 5914 5914 5914 5914 5914 5914 5914 5914 5913 5913 5912 5912 5911 5911 5910 5910 5910 5910 5910 5910 5910 5909 5909 5909 5908 5908 5908 5907 5907
5903 5904 5905 5906 5907 5908 5909 5910 5910 5911 5912 5912 5913 5913 5913 5913 5914 5914 5914 5914 5913 5913 5913 5912 5912 5911 5911 5910 5910 5910 5909 5909 5909 5909 5909 5908 5908 5908 5907 5907 5906 5906 5905
5902 5903 5904 5904 5906 5907 5908 5909 5910 5910 5911 5911 5912 5912 5913 5913 5913 5913 5913 5913 5913 5912 5912 5912 5911 5911 5910 5909 5909 5909 5908 5908 5908 5908 5907 5907 5907 5906 5906 5905 5904 5904 5903
5900 5901 5902 5903 5904 5906 5907 5908 5909 5909 5910 5911 5911 5912 5912 5912 5912 5913 5912 5912 5912 5912 5911 5911 5910 5909 5909 5908 5908 5908 5907 5907 5907 5906 5906 5905 5905 5904 5904 5903 5902 5902 5901
5898 5899 5900 5901 5903 5904 5905 5906 5907 5908 5909 5910 5910 5910 5911 5911 5911 5911 5911 5911 5911 5911 5910 5910 5909 5908 5908 5907 5907 5906 5906 5906 5905 5905 5904 5904 5903 5902 5902 5901 5900 5899 5899
5897 5898 5899 5900 5901 5902 5904 5905 5906 5907 5908 5908 5909 5909 5910 5911 5910 5910 5910 5910 5909 5909 5909 5908 5907 5907 5906 5906 5905 5905 5904 5904 5903 5903 5902 5901 5900 5900 5899 5898 5897 5896 5896
5895 5896 5897 5898 5899 5901 5902 5903 5904 5906 5906 5907 5907 5908 5908 5908 5908 5908 5908 5908 5907 5907 5907 5906 5906 5905 5904 5904 5903 5903 5902 5901 5901 5900 5899 5898 5897 5897 5896 5895 5894 5893 5892
5894 5894 5895 5896 5898 5899 5900 5901 5902 5903 5904 5905 5905 5906 5906 5906 5906 5906 5906 5905 5905 5905 5904 5904 5903 5903 5902 5901 5901 5900 5899 5899 5898 5897 5896 5895 5894 5893 5892 5891 5890 5889 5889
5892 5892 5893 5894 5895 5897 5898 5899 5900 5901 5902 5902 5902 5903 5903 5903 5903 5903 5903 5903 5902 5902 5901 5901 5900 5900 5899 5898 5897 5897 5896 5895 5894 5893 5892 5891 5890 5889 5888 5887 5886 5885 5884
5890 5890 5891 5892 5893 5894 5895 5896 5897 5898 5898 5899 5899 5900 5900 5900 5900 5900 5900 5899 5899 5899 5898 5897 5897 5896 5895 5895 5894 5893 5892 5891 5890 5889 5888 5887 5886 5885 5884 5883 5881 5880 5879
5887 5888 5888 5889 5890 5891 5892 5893 5894 5894 5895 5896 5896 5896 5896 5896 5896 5896 5896 5895 5895 5894 5894 5893 5892 5892 5891 5890 5889 5889 5888 5887 5885 5884 5883 5882 5881 5880 5879 5877 5876 5875 5874
5884 5885 5886 5886 5887 5888 5889 5890 5891 5891 5892 5892 5892 5892 5892 5892 5892 5892 5892 5891 5890 5890 5889 5888 5887 5886 5886 5885 5884 5883 5882 5881 5880 5879 5878 5877 5875 5874 5873 5871 5870 5869 5867
5882 5883 5883 5883 5884 5885 5885 5886 5887 5887 5888 5888 5888 5888 5888 5887 5887 5887 5887 5886 5886 5885 5884 5883 5882 5881 5880 5879 5878 5877 5876 5876 5874 5873 5872 5871 5869 5868 5866 5865 5863 5862 5860
5879 5879 5880 5880 5881 5881 5881 5882 5882 5883 5883 5883 5883 5883 5883 5882 5882 5882 5881 5880 5880 5879 5878 5877 5876 5875 5874 5873 5872 5871 5870 5869 5868 5867 5865 5864 5862 5861 5860 5858 5856 5854 5853
5876 5877 5877 5877 5877 5877 5877 5877 5878 5878 5878 5878 5878 5878 5877 5877 5876 5876 5875 5875 5874 5873 5871 5871 5869 5868 5867 5866 5865 5864 5863 5862 5861 5859 5858 5856 5855 5853 5852 5850 5848 5846 5844
5874 5874 5874 5873 5873 5873 5873 5873 5873 5873 5873 5873 5872 5872 5871 5871 5870 5870 5869 5868 5867 5866 5865 5864 5863 5861 5860 5859 5858 5857 5855 5854 5853 5851 5850 5848 5846 5844 5843 5841 5839 5836 5834
5871 5871 5870 5870 5869 5869 5869 5868 5868 5868 5867 5867 5867 5866 5865 5865 5864 5864 5863 5862 5861 5860 5858 5857 5856 5855 5853 5852 5851 5850 5848 5846 5845 5843 5841 5839 5837 5835 5833 5831 5829 5826 5823
5867 5867 5867 5866 5865 5865 5864 5864 5863 5862 5862 5861 5861 5860 5859 5858 5858 5857 5856 5855 5854 5853 5852 5850 5849 5848 5846 5845 5843 5842 5840 5838 5836 5834 5832 5830 5828 5825 5823 5821 5818 5815 5812
5864 5864 5863 5862 5861 5860 5860 5859 5858 5857 5856 5855 5855 5854 5853 5852 5851 5850 5850 5848 5847 5846 5845 5843 5842 5840 5839 5837 5835 5833 5831 5830 5827 5825 5823 5820 5818 5816 5813 5810 5807 5804 5800
5861 5860 5859 5858 5857 5856 5855 5854 5853 5852 5851 5850 5849 5848 5847 5846 5845 5844 5843 5842 5841 5839 5838 5836 5834 5833 5832 5830 5828 5825 5823 5821 5819 5817 5813 5810 5808 5805 5802 5799 5796 5792 5789
5857 5856 5855 5854 5853 5852 5851 5849 5848 5847 5846 5844 5843 5842 5841 5840 5839 5838 5836 5835 5833 5832 5830 5829 5827 5826 5824 5821 5819 5817 5815 5812 5809 5807 5803 5800 5797 5794 5791 5787 5784 5780 5776
5854 5852 5851 5850 5848 5847 5846 5845 5843 5842 5840 5839 5838 5836 5835 5834 5833 5831 5830 5828 5826 5825 5823 5821 5819 5817 5815 5813 5811 5808 5805 5803 5800 5797 5793 5790 5787 5783 5779 5775 5772 5768 5763
5849 5848 5846 5845 5843 5842 5841 5840 5838 5837 5835 5834 5832 5831 5829 5828 5827 5825 5823 5821 5819 5817 5815 5813 5811 5808 5806 5804 5801 5799 5796 5793 5790 5787 5783 5780 5776 5772 5768 5763 5759 5755 5751
5844 5843 5842 5840 5838 5837 5836 5834 5833 5831 5830 5828 5826 5825 5823 5821 5820 5818 5816 5813 5812 5810 5808 5805 5803 5800 5797 5795 5792 5790 5787 5783 5780 5777 5773 5769 5765 5761 5757 5752 5748 5743 5738
Wind_Speed
6 6 6 6 6 5 5 4 4 4 4 4 4 3 3 2 2 1 0 0 1 2 2 2 2 2 2 2 3 3 3 3 3 2 3 3 3 4 3 3 4 4 4
7 6 6 6 6 6 5 5 4 4 4 4 4 3 3 2 1 1 0 1 1 2 2 2 3 3 2 3 3 3 4 4 4 4 4 4 4 4 4 4 4 4 5
6 7 7 7 7 7 6 6 5 4 4 4 3 3 3 2 2 1 1 0 1 2 2 3 3 3 3 3 3 3 4 4 5 5 4 4 4 4 4 5 5 5 6
6 7 7 7 7 7 7 6 5 5 4 4 4 4 3 3 2 2 1 2 2 3 3 3 4 4 4 4 4 4 4 4 4 4 5 5 5 5 6 6 7 7 7
7 7 8 8 8 8 8 7 6 5 5 4 4 4 4 4 4 3 3 3 3 3 4 4 4 4 4 4 4 4 4 4 5 5 5 5 6 6 7 7 8 8 8
7 7 8 9 10 10 9 8 7 6 6 6 5 5 5 5 5 5 5 5 5 5 5 5 5 5 5 5 5 5 5 5 6 6 7 7 7 8 8 9 9 9 9
7 7 8 9 10 10 9 9 8 8 7 7 6 6 6 6 7 7 7 6 6 6 6 6 6 6 6 6 6 6 6 7 7 8 8 9 9 10 10 11 11 11 12
8 8 10 10 11 11 11 10 10 9 8 7 7 7 7 8 8 8 8 8 8 8 8 8 8 8 8 8 8 8 9 9 9 10 10 11 11 12 12 12 13 13 13
8 9 10 11 11 12 11 11 10 10 9 9 9 9 9 9 9 9 10 10 10 10 10 10 10 10 10 11 10 10 11 11 11 11 12 12 13 13 14 14 14 14 15
9 9 10 11 12 12 12 12 12 11 11 11 11 10 11 11 11 11 11 12 12 12 12 12 12 13 13 13 12 12 13 13 13 14 14 15 15 15 15 16 16 17 17
9 10 10 12 13 13 13 13 13 13 12 12 12 12 13 13 13 13 13 14 14 14 14 15 15 15 15 15 15 15 16 16 16 17 17 17 17 17 17 18 19 19 19
10 11 11 12 13 14 14 14 14 14 14 14 14 14 15 15 15 15 15 16 16 16 17 17 17 18 18 18 19 19 19 19 19 19 19 19 19 20 20 20 20 20 21
11 11 12 13 13 14 15 15 15 15 15 16 16 16 17 17 17 18 18 18 19 19 20 20 20 20 20 21 21 21 22 21 21 21 21 21 22 22 22 22 22 23 23
11 11 12 13 13 14 15 16 16 16 16 17 18 18 18 19 19 19 19 20 21 21 21 21 22 22 23 23 23 23 23 23 23 23 23 23 24 24 24 25 25 26 26
11 12 13 13 14 15 16 17 17 18 18 18 19 19 19 20 20 21 21 21 22 23 23 23 24 24 25 25 25 25 25 25 25 25 26 26 26 27 27 27 27 28 29
12 12 14 15 15 15 16 17 19 19 20 20 21 21 21 22 22 23 23 24 24 24 25 26 26 26 27 28 27 27 27 27 28 28 28 28 28 29 29 29 31 32 32
11 12 13 15 16 16 17 18 19 20 21 22 22 23 23 23 24 24 25 25 25 25 26 26 27 27 28 28 28 29 29 29 30 30 31 31 31 31 31 33 34 34 36
11 12 13 14 16 17 17 18 19 21 22 22 23 24 25 25 26 26 26 26 26 27 27 27 27 28 28 29 30 29 30 31 32 32 33 33 34 35 35 35 36 37 39
12 12 13 14 15 16 18 19 20 21 22 22 23 24 25 25 26 26 26 27 26 26 26 27 28 28 28 29 29 30 31 32 32 33 33 34 34 35 37 38 39 40 42
12 12 13 14 15 16 18 19 20 21 22 23 24 25 25 26 26 26 26 26 26 25 26 28 28 29 29 29 30 31 32 33 33 34 35 36 37 38 38 39 40 41 42
12 13 14 15 16 17 17 19 20 21 22 23 24 25 24 24 25 26 25 25 26 27 27 29 30 30 30 30 31 32 33 34 34 35 37 38 39 40 40 40 40 41 43
13 14 15 15 16 17 18 18 19 20 21 22 23 24 23 23 24 24 25 25 26 27 28 29 30 31 31 32 32 33 34 35 36 38 39 41 41 40 40 41 42 44 45
14 15 15 16 17 17 18 19 19 20 20 21 22 22 23 23 23 23 24 26 27 28 29 30 31 31 32 32 34 35 36 37 38 38 40 41 41 41 42 43 45 46 47
16 17 17 17 18 18 19 19 19 19 20 21 21 21 22 23 23 24 25 26 27 28 29 29 29 30 32 33 34 35 37 38 38 39 39 40 41 43 44 44 45 46 48
18 18 18 18 19 19 20 20 20 20 20 21 21 21 22 23 24 25 26 26 27 28 28 29 29 30 31 32 32 34 35 36 37 37 38 40 41 43 44 44 45 46 46
19 19 19 20 20 21 21 21 21 21 21 22 23 23 23 24 25 25 26 26 27 27 28 28 29 30 31 31 32 33 34 35 36 37 38 39 40 41 42 42 43 44 44
Wind_Direction
186 187 186 182 177 172 167 161 156 154 157 158 158 157 155 160 157 137 80 360 343 334 329 323 324 310 290 280 269 263 269 274 278 286 296 308 300 299 304 297 292 290 289
191 195 198 198 193 185 179 172 170 168 164 168 167 165 166 174 174 173 113 346 333 330 329 327 320 319 310 287 273 267 268 268 268 280 286 294 302 302 297 296 298 294 290
203 201 207 210 206 200 195 189 187 186 184 188 193 191 187 196 204 218 220 294 321 324 326 324 321 319 317 303 289 281 275 272 272 274 277 280 284 290 293 294 296 293 294
215 213 213 212 212 209 204 202 200 200 204 212 216 212 211 217 228 249 262 283 296 304 309 309 317 310 304 298 291 290 281 273 275 274 275 278 279 283 289 291 291 291 292
221 219 218 215 211 212 212 208 205 206 212 221 228 227 226 229 238 250 263 273 290 294 296 297 301 302 302 295 292 291 287 282 276 276 276 281 282 283 286 289 290 288 287
223 226 224 217 214 213 214 215 215 218 220 226 234 234 236 240 252 260 263 269 280 289 292 290 289 291 293 293 292 287 285 285 282 279 280 281 284 285 286 288 289 289 286
224 220 214 216 214 214 216 219 221 225 227 228 234 238 241 249 256 261 264 268 276 284 289 288 283 283 286 288 288 287 286 287 287 286 285 286 286 288 289 287 286 286 284
222 218 216 216 216 215 217 223 224 226 230 235 239 243 249 256 259 261 266 269 273 277 281 283 283 281 280 282 283 283 281 283 285 286 285 286 287 286 287 286 284 283 282
223 220 220 220 220 220 221 225 228 231 238 243 249 253 254 260 262 265 267 269 272 274 277 281 281 280 278 277 278 280 282 281 282 284 284 285 288 285 282 285 285 285 283
233 233 231 227 224 226 228 231 235 238 241 247 252 258 260 262 264 267 269 270 272 273 274 276 278 280 280 279 278 278 279 280 282 283 283 284 283 283 281 282 283 283 282
238 239 239 233 229 230 233 237 240 243 246 251 254 258 260 262 265 268 270 272 273 274 273 274 274 277 278 278 276 276 278 279 282 282 282 283 283 283 282 282 283 283 282
243 242 239 237 235 234 236 241 243 245 250 253 256 259 261 265 267 269 271 272 274 274 274 274 274 276 277 276 276 275 277 278 280 281 282 282 281 281 283 284 285 285 284
247 243 239 241 242 239 241 243 246 250 253 255 257 261 263 267 270 271 272 273 274 275 275 275 275 275 276 276 276 277 278 278 279 280 281 281 282 283 284 285 285 285 285
247 247 244 244 246 246 246 248 250 253 258 259 260 263 265 268 270 272 273 275 276 275 276 276 275 274 275 276 276 278 278 278 277 279 280 281 282 283 284 285 285 285 284
252 251 248 250 253 254 253 252 253 255 259 262 264 266 268 270 272 272 274 276 277 276 275 275 275 276 276 277 276 276 277 277 278 278 279 281 282 281 283 283 284 286 286
260 260 253 253 255 258 257 256 256 258 260 263 266 267 269 271 272 273 275 276 277 277 276 276 276 276 277 277 277 278 277 278 278 278 279 279 281 282 282 282 284 285 286
264 262 260 260 259 259 258 258 258 260 261 263 267 269 270 272 274 274 276 277 277 277 276 277 277 276 277 277 278 278 277 278 278 278 278 278 279 280 281 282 283 284 285
268 267 265 265 263 262 262 262 263 264 265 266 268 269 271 273 273 275 277 276 277 276 275 277 278 279 279 278 279 280 279 278 280 280 280 280 281 281 282 282 283 284 285
272 272 272 272 270 266 264 266 269 271 269 269 270 272 272 273 274 275 277 277 279 278 276 276 278 280 280 280 280 281 281 283 282 282 282 282 283 283 283 283 285 286 286
278 278 279 279 278 275 272 272 274 276 273 272 272 274 274 275 275 277 277 277 279 279 277 278 279 280 281 281 281 282 283 284 285 284 284 285 285 285 285 286 287 289 289
283 283 286 285 280 280 280 277 278 277 275 274 274 276 277 277 276 277 277 277 279 279 279 279 280 280 281 282 282 282 283 285 285 285 287 287 288 288 288 289 289 289 290
283 285 287 288 283 281 282 280 281 282 278 277 277 276 276 277 278 277 278 280 281 281 281 281 280 282 282 282 283 284 284 285 286 288 289 289 291 292 291 290 290 291 291
286 287 288 288 286 284 283 282 282 283 281 279 279 278 277 278 278 278 281 281 280 281 280 281 281 283 282 283 283 285 286 286 287 289 290 291 292 292 292 291 291 291 292
287 288 289 288 287 286 286 284 285 285 284 282 281 281 282 280 279 280 281 283 285 285 285 284 284 285 285 285 286 287 287 286 287 288 290 291 292 293 293 293 293 293 294
289 290 290 290 288 286 285 284 284 285 286 285 284 284 283 282 283 285 286 285 284 287 288 289 287 288 289 288 288 288 290 290 290 290 291 292 293 295 295 295 295 296 296
289 289 289 290 290 287 285 284 285 286 286 286 286 288 287 286 286 287 287 286 286 287 289 291 293 293 292 291 291 291 293 293 294 294 294 295 296 297 297 297 297 298 298